This demonstration page uses our WeatherBlox Daily Observations layout. Learn more.

Left ArrowRight Arrow

Hourly Observations for May 22, 2022

Temp ( °F °C ) Dew Point ( °F °C ) Humidity (%) Winds ( mph kmh ) Pressure ( in mb ) Visibility ( mi km ) Precip ( " mm )
12:59 am 00:59 Mostly Cloudy 74 23.3 67 19.4 79 79 SSW 9 15 30.15 1021 10 16 0.00 0.00
1:59 am 01:59 Mostly Cloudy 73 22.8 67 19.4 81 81 SW 8 13 30.14 1021 10 16 0.00 0.00
2:59 am 02:59 Cloudy 73 22.8 67 19.4 81 81 SSW 8 13 30.14 1021 10 16 0.00 0.00
3:59 am 03:59 Cloudy 73 22.8 67 19.4 81 81 SSW 12 19 30.13 1020 10 16 0.00 0.00
4:59 am 04:59 Mostly Cloudy 65 18.3 65 18.3 100 100 SSW 10 17 30.11 1020 10 16 0.00 0.00
5:59 am 05:59 Mostly Cloudy 74 23.3 73 22.8 97 97 SW 10 17 30.13 1020 10 16 0.00 0.00
6:59 am 06:59 Mostly Cloudy 74 23.3 72 22.2 94 94 SSW 10 17 30.14 1021 10 16 0.00 0.00
7:59 am 07:59 Mostly Cloudy 74 23.3 72 22.2 94 94 SW 14 22 30.14 1021 10 16 0.00 0.00
8:59 am 08:59 Mostly Cloudy 78 25.6 71 21.7 79 79 SW 13 20 30.14 1021 10 16 0.00 0.00
9:59 am 09:59 Mostly Cloudy 78 25.6 71 21.7 79 79 SW 10 17 30.14 1021 10 16 0.00 0.00
10:59 am 10:59 Partly Cloudy 81 27.2 71 21.7 72 72 SW 8 13 30.14 1021 10 16 0.00 0.00
11:59 am 11:59 Partly Cloudy 88 31.1 73 22.8 61 61 WSW 13 20 30.13 1020 10 16 0.00 0.00
12:59 pm 12:59 Partly Cloudy 88 31.1 73 22.8 61 61 SW 15 24 30.11 1020 10 16 0.00 0.00
1:59 pm 13:59 Partly Cloudy 88 31.1 70 21.1 55 55 SW 14 22 30.09 1019 10 16 0.00 0.00
2:59 pm 14:59 Partly Cloudy 88 31.1 70 21.1 55 55 SW 12 19 30.07 1018 10 16 0.00 0.00
3:59 pm 15:59 Partly Cloudy 88 31.1 72 22.2 59 59 SW 15 24 30.06 1018 10 16 0.00 0.00
4:59 pm 16:59 Partly Cloudy 89 31.7 73 22.8 59 59 WSW 13 20 30.06 1018 10 16 0.00 0.00
5:59 pm 17:59 Mostly Sunny 88 31.1 75 23.9 66 66 SW 10 17 30.05 1018 10 16 0.00 0.00
6:59 pm 18:59 Mostly Sunny 87 30.6 75 23.9 67 67 SW 12 19 30.05 1018 10 16 0.00 0.00
7:59 pm 19:59 Partly Cloudy 86 30 69 20.6 57 57 SSW 9 15 30.06 1018 10 16 0.00 0.00
8:59 pm 20:59 Partly Cloudy 86 30 69 20.6 57 57 SW 9 15 30.08 1019 10 16 0.00 0.00
9:59 pm 21:59 Partly Cloudy 83 28.3 67 19.4 59 59 SW 15 24 30.09 1019 10 16 0.00 0.00
10:59 pm 22:59 Partly Cloudy 81 27.2 67 19.4 62 62 WSW 7 11 30.11 1020 10 16 0.00 0.00
11:59 pm 23:59 Partly Cloudy 79 26.1 68 20 69 69 W 6 9 30.11 1020 10 16 0.00 0.00

Powered by AerisWeather